Theta_e
294 295 296 297 298 301 302 303 303 304 304 304 304 304 304 305 301 292 288 291 290 283 285 286 287 285 286 280 278 284 285 285 284 281 278 277 275 274 272 277 280 279 279 279 274 273 273 276 280 278 277 275 274 272
294 294 294 295 296 297 299 300 301 302 302 304 305 305 305 304 304 296 287 292 293 285 285 288 287 289 287 286 283 286 282 280 284 281 279 277 272 271 273 268 280 277 281 279 279 277 272 272 272 273 275 273 271 271
293 293 293 293 294 295 296 298 298 299 300 303 303 304 305 305 304 295 287 289 286 281 284 285 284 287 289 287 289 285 280 287 285 286 278 278 276 276 270 273 278 280 281 280 279 273 270 270 271 271 272 271 270 270
293 292 293 293 293 293 294 295 296 297 298 299 301 302 304 304 301 295 288 287 286 283 277 278 288 284 286 286 292 291 287 288 286 285 281 276 277 280 276 279 281 278 281 276 271 270 270 270 271 270 269 270 268 268
293 292 292 292 292 292 293 294 294 296 297 300 301 302 303 300 297 291 288 287 288 288 279 278 283 284 285 286 290 291 289 285 280 277 274 276 279 280 278 280 277 274 277 278 278 274 274 271 270 270 268 267 267 267
293 292 292 292 292 292 293 293 293 294 296 300 300 300 299 298 296 292 285 288 289 289 283 277 280 279 281 283 285 285 285 284 283 280 277 278 279 279 277 275 269 268 268 268 269 268 268 268 268 268 266 266 266 265
293 292 292 292 292 292 293 293 293 293 294 299 299 298 298 295 288 285 284 285 289 288 281 274 274 278 277 280 282 282 284 281 281 278 276 277 276 276 271 271 268 267 267 268 268 267 265 266 265 266 265 265 264 264
293 292 291 292 292 292 292 293 292 292 293 297 299 297 294 292 288 280 284 288 288 283 279 270 267 272 275 276 278 281 280 281 278 276 275 274 273 272 273 265 265 265 265 265 263 264 265 264 263 263 263 263 261 261
293 292 291 291 292 292 292 292 291 291 293 295 296 289 283 277 276 279 285 281 276 278 270 263 264 265 272 273 276 279 280 275 277 273 272 272 268 272 268 264 263 263 265 262 259 258 258 258 258 257 257 257 258 259
292 292 291 291 292 291 291 291 290 290 294 294 280 272 271 273 285 285 275 273 270 265 265 259 259 263 269 271 272 274 275 272 271 269 272 269 266 261 261 261 264 262 259 258 256 253 252 251 254 252 251 250 252 252
292 292 290 290 291 291 291 290 289 291 283 270 265 266 272 280 272 267 265 266 263 264 261 259 262 263 268 267 264 270 264 264 263 263 265 257 262 264 259 258 258 258 256 251 252 249 250 255 253 251 249 247 247 247
292 292 290 289 290 290 290 289 287 273 267 271 271 269 264 263 261 263 254 258 260 262 257 259 260 262 262 266 264 264 264 264 263 260 262 259 263 257 256 255 254 254 253 250 248 251 248 252 252 251 249 248 247 247
292 292 290 288 289 290 289 288 286 283 278 266 265 262 264 260 262 260 259 257 256 250 250 251 257 258 258 262 257 259 259 257 257 257 258 261 259 256 252 250 249 247 248 250 248 247 247 247 245 247 248 247 246 246
292 291 288 287 288 289 288 286 282 274 267 263 261 263 258 256 254 252 252 252 252 252 248 250 250 255 251 258 256 258 257 255 252 253 257 258 257 255 253 250 250 249 247 248 248 246 247 248 248 248 249 247 247 248
291 290 284 285 287 288 286 283 277 262 262 259 260 262 254 247 244 242 240 244 249 249 251 251 251 259 251 254 252 253 255 253 256 259 258 258 254 255 253 251 250 250 248 247 246 247 248 250 251 250 249 248 248 245
290 280 277 288 287 286 282 269 262 259 255 255 251 252 244 248 248 243 241 245 247 254 250 251 249 252 250 251 254 253 254 255 259 255 256 251 249 250 251 250 251 249 249 247 248 250 252 250 249 251 247 245 244 242
285 270 286 287 286 280 277 263 262 254 256 256 254 241 248 248 254 249 247 249 252 250 253 248 254 255 253 250 252 250 255 257 256 253 249 250 253 253 250 250 249 248 248 248 249 249 250 248 243 244 247 245 240 240
271 275 284 285 280 269 258 259 257 257 255 251 256 251 247 247 248 245 244 246 250 247 248 254 254 251 252 253 252 255 255 250 246 248 249 248 246 247 252 252 250 250 249 248 248 249 250 246 244 247 242 241 240 240
279 277 283 281 274 259 260 259 260 255 250 248 249 250 248 246 247 247 246 246 245 246 251 248 250 252 255 253 255 251 247 250 256 252 250 246 248 249 250 247 250 249 250 249 248 248 246 245 246 245 244 242 245 242
281 280 280 276 272 261 259 257 256 256 251 253 248 250 250 249 247 244 244 246 249 249 253 253 256 255 255 254 253 253 252 253 252 251 251 250 246 246 250 250 252 250 246 241 241 244 242 243 242 243 242 244 243 245
274 273 274 265 261 259 257 254 253 251 249 250 249 252 249 250 248 248 249 247 251 254 256 257 254 252 245 245 244 245 249 252 253 256 255 251 247 248 245 244 244 244 246 246 248 246 247 249 249 248 246 245 244 243
270 274 264 267 261 257 256 254 256 253 253 247 251 252 252 251 249 249 249 250 254 259 256 254 252 249 249 251 250 248 245 244 242 246 248 249 247 247 245 246 245 245 246 247 248 250 250 250 248 245 245 246 243 240
272 269 263 260 261 257 254 253 255 254 257 253 252 255 253 252 251 251 252 255 258 257 252 250 248 246 249 246 245 247 245 248 246 244 244 245 243 243 245 248 249 249 247 248 248 248 249 250 250 249 249 247 242 241
271 264 262 259 256 254 249 252 257 256 256 255 255 256 252 251 251 252 254 257 260 253 253 253 252 253 251 249 249 251 250 246 243 242 240 246 246 245 246 248 248 248 249 248 252 251 251 251 252 251 249 247 241 240
268 262 258 255 251 252 252 251 254 256 256 257 258 255 252 250 255 253 256 260 259 256 256 253 252 254 254 251 251 250 242 245 247 248 245 247 243 244 244 242 244 248 249 250 251 252 252 250 250 250 249 244 242 242
265 260 255 252 251 256 256 253 253 256 257 256 256 250 252 255 255 259 258 259 259 257 255 255 255 252 251 252 250 248 247 241 243 246 246 247 250 250 250 250 251 250 251 254 254 253 253 252 250 248 246 244 244 241
262 259 251 252 257 258 257 254 255 256 256 256 253 253 256 259 260 260 257 257 257 256 255 255 255 255 254 248 244 242 239 241 245 246 243 241 244 247 249 250 252 253 251 254 255 254 253 252 250 248 246 241 240 242
259 251 256 255 259 260 262 260 259 258 258 256 258 257 260 262 260 259 257 254 252 251 250 247 246 245 244 243 242 241 240 238 240 241 242 243 242 243 245 247 248 256 249 251 254 253 252 250 248 245 243 243 244 240
253 254 258 257 258 259 260 260 260 257 254 258 261 261 262 260 258 256 254 252 249 251 251 247 245 239 239 237 236 236 238 244 246 246 246 247 250 251 247 249 250 249 249 251 256 252 248 246 243 243 243 243 243 240
257 257 260 257 257 258 253 253 254 252 252 252 251 254 256 257 255 251 250 249 249 249 244 241 238 241 241 241 241 242 238 238 242 246 247 249 250 250 249 250 249 249 249 248 247 245 252 247 248 243 242 241 240 241
254 256 257 257 256 253 252 251 251 251 251 251 250 251 253 251 251 249 247 246 244 240 242 243 240 235 240 239 240 243 246 243 243 245 244 246 247 247 247 247 248 247 243 242 241 241 242 241 240 239 239 242 243 244
250 254 257 256 254 251 251 252 251 252 251 250 250 247 249 249 251 250 246 242 242 243 244 241 243 246 243 241 240 240 247 244 243 247 246 246 246 246 246 246 243 241 240 241 239 240 240 239 239 241 242 243 244 245
252 253 255 255 254 253 250 250 250 250 248 248 246 242 242 243 250 250 244 241 244 245 245 246 244 241 242 245 244 244 247 244 245 254 254 255 252 249 242 240 239 239 241 241 241 241 241 240 241 242 243 243 244 245
Wind_Speed
33 32 31 31 31 30 28 17 8 11 11 11 12 13 12 12 11 7 0 4 3 2 2 3 3 2 2 2 6 4 4 1 2 7 6 6 5 8 3 4 10 12 11 7 3 3 14 1 4 11 5 7 9 6
30 30 29 28 27 26 24 23 21 15 6 7 12 14 15 13 10 7 3 2 3 5 2 2 1 2 3 4 5 6 5 6 6 4 2 3 3 3 4 4 1 5 7 9 8 6 3 4 4 4 3 7 5 6
28 27 28 26 24 23 21 19 19 16 12 7 12 13 13 12 11 8 3 2 4 3 1 1 3 2 4 4 8 6 3 6 4 2 5 3 5 4 5 5 4 2 0 4 4 3 4 6 6 5 6 9 9 7
27 25 25 25 23 21 20 18 16 14 13 5 3 2 15 10 13 9 4 2 3 2 2 3 1 2 8 10 7 4 1 4 5 3 2 3 4 3 2 2 3 2 3 6 2 1 2 6 5 9 10 9 9 7
27 25 24 23 22 21 19 18 16 14 13 4 3 2 4 18 18 10 4 2 2 4 2 2 2 2 6 9 1 4 3 5 2 3 3 2 2 3 2 1 1 4 7 8 8 8 3 3 13 10 10 8 6 7
27 25 24 23 20 20 19 16 14 12 12 11 14 17 19 13 5 4 2 1 3 2 3 1 2 4 7 9 7 7 4 4 3 3 2 2 3 1 3 3 1 2 2 2 3 5 8 13 11 8 9 8 7 7
26 24 23 24 21 19 18 17 13 9 7 6 12 14 13 13 6 3 1 1 4 1 3 2 3 3 6 4 3 4 5 3 3 3 3 2 2 3 2 4 5 6 6 9 12 9 8 4 6 8 9 8 7 7
25 24 22 24 22 21 18 17 11 6 5 4 10 12 14 19 13 4 5 5 2 3 3 3 3 4 9 4 3 4 2 2 5 3 2 2 2 1 4 2 7 7 8 7 7 7 5 12 10 7 7 6 6 5
25 25 22 23 24 23 21 18 12 3 6 9 16 10 3 5 4 0 7 10 6 5 4 3 3 3 6 2 2 2 3 3 2 3 2 1 0 4 3 4 9 8 5 10 7 8 8 7 7 5 4 4 4 4
24 24 23 22 23 22 22 21 14 2 13 12 7 5 4 2 3 5 7 5 7 6 6 4 1 1 4 3 2 1 2 2 2 2 2 3 4 2 2 2 3 7 8 11 7 2 2 1 5 4 4 3 3 3
23 24 22 22 25 23 22 22 15 9 11 5 2 2 3 5 4 5 3 5 4 5 4 1 1 1 4 2 1 4 1 2 3 4 2 3 5 1 3 4 5 6 7 4 4 2 3 7 10 7 5 5 4 3
22 22 22 19 23 24 23 21 16 5 4 4 4 3 3 6 4 7 1 4 4 1 3 2 3 3 3 3 3 4 3 2 1 3 3 4 3 1 2 2 3 5 6 5 2 7 3 7 7 6 5 5 5 3
21 21 20 16 22 22 21 19 13 7 6 4 6 7 5 5 7 5 2 4 1 2 2 1 1 2 4 2 3 3 6 2 1 5 4 5 1 2 3 3 2 2 3 5 3 3 4 4 3 3 3 2 3 1
20 21 17 13 23 22 20 17 11 3 6 6 5 5 4 5 2 5 4 5 3 2 1 1 1 2 2 5 0 6 2 3 5 3 6 4 5 6 6 3 5 5 4 5 4 3 4 4 3 2 2 3 4 3
19 18 6 10 20 21 18 12 9 5 5 4 5 3 2 2 1 2 1 2 3 2 2 2 3 2 3 5 3 4 6 3 6 6 5 4 4 6 6 5 5 5 5 4 3 4 4 4 3 2 2 2 2 1
17 5 3 22 21 20 13 5 6 5 6 5 6 5 1 3 3 2 2 3 3 1 2 3 3 6 2 4 4 6 7 7 5 5 4 2 3 4 5 5 5 4 5 4 4 4 3 4 4 3 2 3 4 3
7 1 14 20 21 12 12 4 5 8 6 4 1 1 1 2 5 4 4 4 2 4 2 3 5 7 3 4 2 6 7 6 5 4 3 5 6 7 6 5 5 6 5 4 4 4 3 3 4 2 3 4 4 4
2 4 14 17 13 5 4 5 6 5 4 1 3 3 2 1 3 1 3 2 4 3 3 5 6 3 6 6 6 6 5 3 3 3 3 3 3 4 6 8 6 7 6 6 4 4 4 5 4 4 4 3 1 2
5 2 11 12 6 4 4 5 4 4 1 0 1 2 2 2 1 2 2 2 1 1 5 3 4 5 6 6 5 4 3 4 4 3 2 2 3 6 6 4 6 6 7 6 6 5 4 5 4 3 3 3 3 2
2 3 8 8 6 4 4 3 2 5 3 2 3 2 3 2 1 2 1 2 2 3 2 3 7 5 5 4 4 3 3 4 4 2 3 2 3 5 7 6 5 5 4 3 1 3 1 1 2 3 3 4 3 4
3 3 6 5 4 6 5 1 4 2 3 3 1 1 3 1 2 1 1 1 3 4 5 5 4 3 1 1 1 1 1 3 4 4 4 2 3 3 3 2 3 3 4 4 4 3 5 5 3 4 5 4 4 4
2 3 3 3 4 4 5 2 2 1 4 1 1 1 3 2 2 2 2 1 5 5 5 4 3 3 1 1 2 3 1 3 2 3 4 6 4 2 2 5 4 4 4 5 4 5 6 4 4 3 4 3 3 2
5 3 3 3 3 4 2 1 3 2 3 3 1 2 1 2 1 2 3 5 5 2 1 2 2 1 2 2 1 3 4 4 3 3 2 3 1 2 3 5 5 5 4 5 4 4 4 4 5 5 4 3 2 2
3 4 2 0 3 3 2 2 1 2 2 2 3 3 2 2 3 2 5 4 3 3 3 4 3 3 1 2 1 3 4 4 1 1 2 4 2 3 4 4 4 4 4 2 4 4 4 4 5 4 4 4 3 3
3 4 4 4 2 4 2 1 1 1 3 3 4 2 2 2 2 4 5 4 3 3 3 3 3 2 2 1 2 2 2 4 5 4 3 4 3 2 2 2 3 4 4 4 3 4 3 3 4 4 4 4 5 6
4 2 6 4 2 4 4 4 4 6 3 3 2 2 2 2 2 7 5 3 3 3 5 6 5 4 2 4 2 1 3 4 4 2 4 5 5 5 4 4 2 4 7 6 4 6 5 5 5 6 5 6 6 5
5 6 2 1 0 3 2 1 0 2 4 5 4 5 3 4 6 5 1 0 1 1 2 2 3 3 3 2 2 2 1 3 4 3 2 2 4 4 4 5 5 4 5 8 7 5 5 6 6 6 6 3 5 6
2 4 5 3 2 1 2 3 4 5 3 2 4 6 5 5 4 1 1 2 2 2 4 3 3 3 3 2 2 3 0 1 2 3 2 2 2 2 2 1 1 5 3 3 4 5 4 4 5 6 6 6 5 4
2 1 2 3 2 2 3 3 2 1 2 1 3 3 2 1 1 0 1 1 1 1 3 2 1 2 3 3 2 0 2 3 5 3 2 2 2 2 2 2 2 2 2 3 5 5 6 5 5 6 6 5 5 3
3 1 2 2 3 4 1 1 0 1 1 1 2 3 3 3 0 1 2 2 1 1 2 2 2 3 2 3 2 3 2 3 3 4 4 3 3 1 2 3 3 3 3 3 3 1 4 3 1 2 0 2 2 3
0 1 1 1 1 1 1 1 0 1 0 0 1 1 3 5 4 1 2 2 3 3 3 2 2 1 4 2 2 3 2 3 6 6 4 2 1 1 2 2 2 3 3 4 3 3 2 1 2 3 4 7 7 6
1 3 3 3 2 1 1 0 1 1 1 1 0 1 3 3 4 3 3 3 3 1 4 3 3 3 6 3 1 2 2 2 3 4 6 3 2 2 3 3 3 4 4 4 3 3 4 5 3 5 6 9 9 10
1 0 1 3 2 2 1 1 2 2 1 1 1 1 1 2 5 4 1 2 3 3 4 4 3 2 4 6 5 3 3 3 3 4 6 5 5 5 3 3 3 4 5 3 3 4 6 5 5 7 8 9 11 12
Wind_Direction
10 14 19 18 22 29 35 47 122 135 142 148 156 172 183 186 84 74 271 360 85 104 57 8 331 141 128 173 161 154 96 194 153 197 183 172 203 220 100 192 173 173 176 195 110 172 252 90 103 176 135 96 129 121
12 9 15 16 18 24 28 32 41 40 218 185 184 184 190 202 178 106 84 7 32 78 114 130 6 345 309 284 141 197 167 165 177 151 190 107 154 302 158 213 199 190 184 184 183 200 52 20 63 68 103 134 148 133
14 10 10 13 14 15 20 23 20 24 27 27 221 208 204 210 180 119 119 103 56 98 94 101 241 301 310 309 295 155 274 166 196 166 162 142 199 146 171 245 85 180 85 127 129 136 137 124 89 88 85 117 122 114
11 11 10 9 8 11 13 14 14 11 352 6 6 243 213 194 138 118 119 140 101 94 132 261 309 306 310 311 251 218 174 119 110 77 122 140 140 191 189 180 164 141 85 112 69 127 102 217 192 141 121 119 116 109
8 10 8 14 6 5 7 9 9 5 359 346 83 206 168 140 117 88 80 38 307 131 186 223 242 332 319 352 331 91 146 105 111 92 91 175 141 135 73 333 206 174 165 186 219 175 131 150 153 148 141 137 130 135
7 9 4 12 12 6 1 7 7 6 12 95 92 98 104 96 62 79 82 17 350 101 128 178 271 349 342 342 27 57 50 63 55 90 92 69 53 74 134 208 111 99 72 4 137 67 89 108 112 124 124 130 124 121
3 8 2 7 13 14 7 3 14 14 26 122 107 98 93 84 61 60 104 28 358 345 103 38 350 24 333 295 25 7 31 68 75 98 68 80 76 34 138 204 139 116 101 95 103 98 77 173 155 132 123 116 109 100
360 4 4 2 7 9 13 10 13 38 47 99 125 92 90 92 121 48 6 35 46 92 66 111 282 25 6 356 17 347 42 47 28 87 70 75 103 5 251 124 126 124 107 81 44 40 79 111 108 104 105 122 125 120
356 359 1 1 3 4 7 11 12 16 119 107 112 94 63 35 49 99 135 69 53 64 116 73 122 228 338 6 337 22 2 62 3 73 70 233 37 218 241 157 167 170 167 144 90 55 58 89 107 99 97 85 127 122
353 357 357 357 2 4 5 7 16 63 149 116 40 44 4 318 283 105 7 21 20 353 26 89 272 347 337 347 47 355 13 49 57 16 339 51 261 341 338 316 137 139 129 132 103 90 97 121 159 157 164 153 144 165
350 353 357 353 356 1 4 7 20 100 51 46 96 143 241 340 54 31 43 57 334 28 18 352 356 82 358 45 54 16 171 7 84 276 98 318 282 47 31 65 63 100 106 84 91 98 159 155 162 158 173 194 185 176
348 350 351 351 356 356 359 7 14 74 162 172 149 89 43 41 38 88 326 339 36 197 330 47 356 6 331 359 70 351 95 32 183 324 62 294 264 279 116 118 84 114 130 123 135 132 125 119 146 147 155 170 188 186
344 348 348 343 351 355 356 1 15 96 107 37 45 50 41 315 37 108 241 304 20 207 266 351 22 355 348 34 62 61 69 201 310 38 233 238 239 204 180 141 101 32 113 128 119 108 122 124 124 137 163 207 120 113
339 346 342 339 348 350 353 360 4 33 71 72 73 318 96 318 230 182 180 182 223 123 151 135 44 105 275 50 8 82 259 55 43 17 244 254 224 184 175 178 135 192 184 160 159 140 142 148 168 156 156 147 154 203
336 348 345 333 345 346 348 1 30 44 75 94 73 243 225 240 282 248 264 346 257 146 129 59 31 79 355 73 38 100 33 323 205 226 228 231 209 160 171 176 182 171 173 182 174 167 185 169 157 184 191 158 178 130
340 19 307 344 339 345 348 30 33 79 55 82 74 96 314 57 301 322 189 240 212 144 50 49 117 60 344 125 72 210 118 222 241 219 227 136 175 191 174 178 184 170 172 181 168 173 166 165 185 204 134 203 189 177
2 267 330 335 338 350 13 68 57 44 108 77 303 356 99 103 165 184 147 203 145 95 175 114 85 197 111 50 270 196 204 214 208 233 206 200 188 193 183 168 171 169 170 173 165 169 170 126 100 104 218 229 197 210
237 288 330 341 354 1 23 45 82 84 78 182 155 203 176 24 103 174 217 181 122 137 123 183 127 110 186 177 251 232 224 238 220 205 213 205 196 177 169 176 171 173 174 180 174 158 151 174 186 222 208 219 231 263
268 314 348 0 28 72 58 3 46 118 184 166 69 67 83 116 114 35 63 79 90 147 103 40 98 198 222 211 206 231 233 203 181 200 221 236 194 173 174 158 159 166 172 168 179 198 196 195 202 190 194 152 205 226
12 20 1 33 52 77 31 340 53 99 145 163 83 99 80 82 114 88 65 29 68 79 77 194 218 219 191 225 197 178 178 151 130 64 301 259 197 155 177 170 182 158 134 127 92 154 134 284 223 201 183 190 182 248
55 341 16 61 52 65 83 33 46 122 134 99 178 104 79 44 51 60 111 304 54 216 236 212 220 250 277 294 354 49 132 162 181 162 189 197 198 158 152 158 133 128 160 177 191 206 199 219 215 185 182 210 217 234
201 30 59 8 73 38 73 326 106 152 72 146 98 133 120 156 177 204 134 80 235 238 202 181 210 173 140 221 227 221 252 137 90 94 69 107 114 148 210 186 141 192 198 201 185 203 214 211 174 172 178 217 200 232
97 73 48 46 64 59 272 45 76 328 112 189 84 138 187 153 91 156 237 227 259 229 151 160 147 92 121 107 77 247 213 178 189 205 196 182 197 155 135 165 178 170 201 231 186 191 204 187 182 181 179 175 171 258
63 64 119 138 80 200 5 19 45 107 99 172 167 203 195 142 152 205 255 238 220 119 181 184 163 127 98 55 245 233 194 174 165 304 209 146 166 247 198 186 187 199 181 160 166 179 176 193 181 175 180 194 193 225
126 269 105 266 349 87 116 75 196 180 195 184 171 196 195 159 190 219 239 254 183 184 161 143 161 207 155 225 279 256 207 164 170 198 244 185 128 56 26 293 240 214 160 147 180 183 185 166 179 185 195 197 219 237
199 223 157 207 257 142 178 159 208 200 155 171 180 103 178 166 215 240 224 217 193 166 171 183 171 161 227 206 203 262 246 173 126 141 268 188 186 164 175 176 200 271 191 198 157 186 188 184 192 195 215 225 222 220
221 234 254 267 97 121 92 34 56 133 181 191 172 170 174 212 234 251 315 283 73 81 82 123 144 142 136 173 248 255 201 183 173 191 217 214 217 192 158 169 202 235 164 178 187 171 182 193 196 198 220 231 225 214
167 146 162 189 172 183 190 190 204 217 207 169 136 188 205 208 247 326 35 43 64 86 77 65 55 90 127 174 170 132 70 225 297 313 311 295 251 222 201 173 187 128 125 140 163 162 172 180 184 194 201 222 242 214
83 243 134 120 129 197 228 216 225 77 10 228 228 221 242 332 337 313 91 76 83 93 92 85 5 19 47 44 42 329 159 150 127 136 201 260 338 279 185 147 134 116 113 119 168 153 167 168 183 194 207 214 233 225
156 258 130 142 185 219 189 346 29 52 30 357 312 285 263 255 81 99 137 152 151 170 179 144 134 83 98 81 346 334 242 200 187 146 155 196 228 256 154 166 160 138 126 126 129 46 332 81 298 42 249 277 274 278
46 157 101 137 192 75 73 89 161 232 311 18 69 280 292 317 309 183 188 163 119 118 117 74 42 140 132 160 155 102 337 245 216 226 220 226 275 203 183 171 146 127 127 138 149 174 170 174 215 255 276 276 273 261
88 175 158 183 199 149 209 335 16 335 8 347 321 327 310 329 284 275 176 127 102 163 224 142 135 247 206 209 228 250 236 250 235 215 205 192 218 195 143 118 114 125 141 159 167 179 193 217 241 242 261 273 274 275
47 106 95 119 148 182 164 153 36 346 23 311 295 286 247 217 251 286 298 192 165 188 186 203 207 218 197 183 192 231 239 233 237 194 181 190 175 159 142 137 142 154 165 179 197 195 222 229 255 261 263 263 271 276